Home > Weather > Mendrisio > Past weeks

Flag for Switzerland Past Weather in Mendrisio, Ticino, Switzerland — Yesterday and Last 2 Weeks

Now
62 °F

Cool.


Feels Like: 62 °F
Forecast: 58 / 73 °F
Wind: No wind

Location: Stabio

Current Time: Jul 29, 2016 at 6:01:58 AM

Latest Report: Jul 29, 2016 at 4:00 AM


Visibility: N/A

Pressure: 30.01 "Hg

Humidity: 97%

Dew Point: 61 °F

Location of MendrisioLocation

Past Weather in Mendrisio — Graph

°F

Mendrisio Temperature Yesterday

Maximum temperature yesterday: 82 °F (at 5:00 PM)
Minimum temperature yesterday: 62 °F (at 6:00 AM)
Average temperature yesterday: 71 °F

High & Low Weather Summary for the Past Weeks

 TemperatureHumidityPressure
High88 °F (Jul 20, 4:00 PM)100% (Jul 23, 2:00 PM)30.17 "Hg (Jul 23, 2:00 PM)
Low52 °F (Jul 17, 6:00 AM)15% (Jul 16, 5:00 PM)29.84 "Hg (Jul 14, 4:00 PM)
Average71 °F69%30.02 "Hg
* Reported Jul 14 4:00 AM — Jul 29 4:00 AM, Mendrisio, Weather by CustomWeather, © 2016

Note: Actual official high and low records may vary slightly from our data, if they occured in-between our weather recording intervals... More about our weather records

Advertising

Mendrisio Weather History for the Previous 24 Hours

Scroll right to see more
 ConditionsComfort  
Time TempWeatherWind HumidityBarometerVisibility
4:00 AM
Fri, Jul 29
62 °FCool.No wind97%30.01 "HgN/A
3:00 AM62 °FCool.1 mph98%30.00 "HgN/A
2:00 AM64 °FMild.1 mph92%30.00 "HgN/A
1:00 AM64 °FMild.1 mph93%30.01 "HgN/A
12:00 AM64 °FMild.1 mph90%30.00 "HgN/A
11:00 PM
Thu, Jul 28
65 °FMild.1 mph89%29.98 "HgN/A
10:00 PM66 °FMild.1 mph80%29.97 "HgN/A
9:00 PM68 °FMild.2 mph78%29.95 "HgN/A
8:00 PM73 °FMild.2 mph67%29.92 "HgN/A
7:00 PM79 °FWarm.1 mph49%29.91 "HgN/A
6:00 PM81 °FWarm.2 mph48%29.91 "HgN/A
5:00 PM82 °FWarm.5 mph54%29.91 "HgN/A
4:00 PM82 °FWarm.2 mph55%29.93 "HgN/A
3:00 PM81 °FWarm.5 mph56%29.94 "HgN/A
2:00 PM80 °FWarm.5 mph58%29.96 "HgN/A
1:00 PM78 °FWarm.6 mph60%29.97 "HgN/A
12:00 PM76 °FMild.3 mph62%29.98 "HgN/A
11:00 AM74 °FMild.2 mph71%29.98 "HgN/A
10:00 AM71 °FMild.2 mph77%29.99 "HgN/A
9:00 AM69 °FMild.2 mph84%29.99 "HgN/A
8:00 AM65 °FMild.2 mph96%30.00 "HgN/A
7:00 AM62 °FCool.1 mph95%30.01 "HgN/A
6:00 AM62 °FCool.1 mph98%30.01 "HgN/A
Weather by CustomWeather, © 2016

See weather overviewHow to use our weather pages